Weather reports worldwide

Advertisment
Nottingham/Watnall, United Kingdom (3354): temperature & dewpoint: 05.12.2019 08:00:00 - 11.12.2019 08:00:00 (GMT)Nottingham/Watnall, United Kingdom (3354): temperature -20cm & temperature -100cm: 05.12.2019 08:00:00 - 11.12.2019 08:00:00 (GMT)Nottingham/Watnall, United Kingdom (3354): wind speed & gusts: 05.12.2019 08:00:00 - 11.12.2019 08:00:00 (GMT)Nottingham/Watnall, United Kingdom (3354): wind direction: 05.12.2019 08:00:00 - 11.12.2019 08:00:00 (GMT)Nottingham/Watnall, United Kingdom (3354): reduced air pressure: 05.12.2019 08:00:00 - 11.12.2019 08:00:00 (GMT)Nottingham/Watnall, United Kingdom (3354): visibility: 05.12.2019 08:00:00 - 11.12.2019 08:00:00 (GMT)Nottingham/Watnall, United Kingdom (3354): sunshine duration: 05.12.2019 08:00:00 - 11.12.2019 08:00:00 (GMT)Nottingham/Watnall, United Kingdom (3354): precipitation: 05.12.2019 08:00:00 - 11.12.2019 08:00:00 (GMT)
Date & Time tt [°C] td [°C] tt -20cm [°C] tt -100cm [°C] ff [km/h] ff [kn] fx [km/h] fx [kn] dd ppp [hPa] vv [km] sd [min] rr [mm]
11.12.2019 08:00:00 2,7 1,4 - - 8 4 - - SSW 1003,4 14 0 0,0
11.12.2019 07:00:00 3,2 1,7 - - 11 6 - - SW 1003,9 15 0 0,0
11.12.2019 06:00:00 3,3 1,6 - - 11 6 - - SW 1004,2 15 0 0,0
11.12.2019 05:00:00 3,3 1,7 - - 13 7 - - SW 1004,9 14 0 0,0
11.12.2019 04:00:00 3,1 1,6 - - 11 6 - - SSW 1005,3 15 0 0,0
11.12.2019 03:00:00 3,8 1,8 - - 13 7 - - SW 1005,4 16 0 0,0
11.12.2019 02:00:00 4,1 2,1 - - 16 9 - - SW 1005,3 17 0 0,0
11.12.2019 01:00:00 4,2 2,1 - - 11 6 - - SW 1005,1 19 0 0,0
11.12.2019 00:00:00 5,1 2,4 - - 18 10 - - WSW 1004,7 18 - 0,0
10.12.2019 23:00:00 5,1 2,6 - - 11 6 - - W 1004,4 30 0 0,0
10.12.2019 22:00:00 5,7 3,1 - - 18 10 - - WSW 1002,9 40 0 0,0
10.12.2019 21:00:00 6,3 4,1 - - 22 12 52 28 W 1001,8 45 0 1,2
10.12.2019 20:00:00 7,9 6,0 - - 22 12 - - WSW 1000,0 29 0 0,2
10.12.2019 19:00:00 7,8 6,3 - - 24 13 61 33 W 998,6 16 0 3,0
10.12.2019 18:00:00 11,2 10,5 - - 28 15 65 35 SSW 995,6 22 0 0,8
10.12.2019 17:00:00 11,4 9,9 - - 35 19 68 37 SSW 996,2 9 0 0,0
10.12.2019 16:00:00 10,9 9,7 - - 34 18 76 41 SSW 997,7 12 0 0,0
10.12.2019 15:00:00 10,4 8,8 - - 31 17 63 34 SSW 999,3 16 0 0,0
10.12.2019 14:00:00 10,0 8,5 - - 29 16 57 31 SSW 1001,2 25 0 0,0
10.12.2019 13:00:00 9,4 7,9 - - 26 14 52 28 SSW 1003,2 12 0 0,0
10.12.2019 12:00:00 8,6 7,4 - - 24 13 - - SSW 1006,0 17 0 0,2
10.12.2019 11:00:00 7,8 6,8 - - 28 15 50 27 SSW 1008,2 10 0 0,6
10.12.2019 10:00:00 6,9 6,0 - - 21 11 46 25 SSW 1010,1 6 0 1,4
10.12.2019 09:00:00 5,7 4,8 5,7 8,4 21 11 - - S 1011,8 8 0 0,8
10.12.2019 08:00:00 5,1 3,6 - - 21 11 - - S 1013,0 12 0 0,0
10.12.2019 07:00:00 4,5 2,6 - - 18 10 - - SSW 1015,0 13 0 0,0
10.12.2019 06:00:00 4,5 2,6 - - 22 12 - - SSW 1016,2 12 0 0,0
10.12.2019 05:00:00 3,1 1,6 - - 16 9 - - S 1017,6 12 0 0,0
10.12.2019 04:00:00 2,5 1,0 - - 13 7 - - S 1019,1 14 0 0,0
10.12.2019 03:00:00 1,9 1,0 - - 11 6 - - SSW 1020,2 12 0 0,0
10.12.2019 02:00:00 1,4 0,5 - - 8 4 - - SW 1021,8 11 0 0,0
10.12.2019 01:00:00 1,4 0,4 - - 8 4 - - SW 1022,7 11 0 0,0
10.12.2019 00:00:00 1,5 0,3 - - 8 4 - - SW 1023,4 11 - 0,0
09.12.2019 23:00:00 1,8 0,5 - - 11 6 - - WSW 1023,3 9 0 0,0
09.12.2019 22:00:00 1,6 0,2 - - 11 6 - - SW 1023,6 11 0 0,0
09.12.2019 21:00:00 2,0 0,2 - - 9 5 - - WSW 1023,3 12 0 0,0
09.12.2019 20:00:00 2,7 0,4 - - 11 6 - - SW 1022,7 11 0 0,0
09.12.2019 19:00:00 2,6 -0,3 - - 9 5 - - WSW 1022,0 14 0 0,0
09.12.2019 18:00:00 3,9 -0,1 - - 9 5 - - W 1021,5 17 0 0,0
09.12.2019 17:00:00 4,4 -0,7 - - 9 5 - - W 1020,5 29 0 0,0
09.12.2019 16:00:00 5,4 -1,2 - - 11 6 - - WNW 1019,1 26 18 0,0
09.12.2019 15:00:00 6,7 -1,6 - - 13 7 - - WNW 1018,0 24 60 0,0
09.12.2019 14:00:00 7,1 -1,8 - - 18 10 - - NNW 1016,2 40 60 0,0
09.12.2019 13:00:00 7,4 -1,3 - - 21 11 46 25 NNW 1014,7 30 60 0,0
09.12.2019 12:00:00 7,5 0,2 - - 22 12 - - NNW 1012,8 21 60 0,0
09.12.2019 11:00:00 7,1 1,0 - - 18 10 48 26 NW 1011,1 27 60 0,0
09.12.2019 10:00:00 6,6 -0,4 - - 16 9 - - NW 1009,1 30 60 0,0
09.12.2019 09:00:00 6,2 -0,1 6,4 8,4 21 11 46 25 NW 1006,4 45 0 0,0
09.12.2019 08:00:00 6,2 0,4 - - 22 12 48 26 NW 1003,5 50 0 0,0
09.12.2019 07:00:00 6,5 1,2 - - 22 12 50 27 NW 1000,7 50 0 0,0
09.12.2019 06:00:00 6,6 2,1 - - 21 11 - - NW 997,6 40 0 0,0
09.12.2019 05:00:00 6,9 4,0 - - 16 9 - - WNW 994,7 30 0 0,0
09.12.2019 04:00:00 5,7 3,8 - - 13 7 - - W 992,5 18 0 0,0
09.12.2019 03:00:00 6,0 3,6 - - 16 9 - - W 990,4 45 0 0,0
09.12.2019 02:00:00 5,4 3,9 - - 13 7 - - SW 988,5 17 0 0,0
09.12.2019 01:00:00 5,5 4,1 - - 18 10 - - WSW 988,0 14 0 0,0
09.12.2019 00:00:00 5,3 3,4 - - 21 11 - - SW 987,9 9 - 0,0
08.12.2019 23:00:00 4,9 2,1 - - 18 10 - - SW 987,9 14 0 0,0
08.12.2019 22:00:00 5,8 1,9 - - 21 11 - - SW 988,8 14 0 0,0
08.12.2019 21:00:00 5,6 1,9 - - 24 13 46 25 SW 989,4 15 0 0,0
08.12.2019 20:00:00 5,5 1,6 - - 24 13 - - SW 990,2 15 0 0,0
08.12.2019 19:00:00 5,6 1,9 - - 22 12 - - SW 991,3 18 0 0,0
08.12.2019 18:00:00 6,0 1,7 - - 21 11 - - SW 992,0 21 0 0,0
08.12.2019 17:00:00 6,2 1,8 - - 18 10 - - WSW 992,4 16 0 0,0
08.12.2019 16:00:00 6,5 1,6 - - 18 10 52 28 WSW 993,1 20 0 0,0
08.12.2019 15:00:00 7,6 1,5 - - 26 14 59 32 WSW 993,2 30 18 0,0
08.12.2019 14:00:00 7,9 2,0 - - 24 13 59 32 WSW 993,8 17 30 0,0
08.12.2019 13:00:00 8,5 2,2 - - 31 17 67 36 WSW 994,4 18 60 0,2
08.12.2019 12:00:00 8,4 2,5 - - 29 16 57 31 WSW 995,1 19 18 0,0
08.12.2019 11:00:00 8,2 3,2 - - 24 13 - - WSW 995,9 17 24 0,0
08.12.2019 10:00:00 7,3 3,6 - - 22 12 - - SW 996,3 14 36 0,0
08.12.2019 09:00:00 6,9 3,6 6,7 8,2 21 11 - - WSW 995,9 22 0 0,0
08.12.2019 08:00:00 6,8 4,1 - - 21 11 46 25 WSW 996,0 40 0 0,0
08.12.2019 07:00:00 7,3 4,6 - - 34 18 61 33 W 995,6 20 0 1,0
08.12.2019 06:00:00 8,5 6,7 - - 24 13 50 27 W 994,5 4,1 0 1,2
08.12.2019 05:00:00 10,1 7,6 - - 28 15 63 34 WSW 993,4 45 0 0,0
08.12.2019 04:00:00 10,3 9,7 - - 28 15 54 29 SW 993,0 6 0 0,4
08.12.2019 03:00:00 10,1 9,0 - - 28 15 54 29 SW 993,7 4,4 0 0,0
08.12.2019 02:00:00 9,5 8,3 - - 28 15 57 31 SW 994,9 26 0 0,0
08.12.2019 01:00:00 9,2 8,2 - - 28 15 52 28 SW 996,9 18 0 1,8
08.12.2019 00:00:00 8,7 7,7 - - 26 14 54 29 SSW 998,1 8 - 1,2
07.12.2019 23:00:00 9,0 7,1 - - 26 14 52 28 SSW 1000,3 9 0 0,2
07.12.2019 22:00:00 9,0 7,1 - - 22 12 50 27 SSW 1002,2 45 0 0,0
07.12.2019 21:00:00 8,9 7,2 - - 22 12 - - SSW 1004,2 40 0 0,0
07.12.2019 20:00:00 8,2 6,7 - - 15 8 - - SSW 1005,4 19 0 0,0
07.12.2019 19:00:00 8,6 6,6 - - 18 10 - - SSW 1006,5 23 0 0,0
07.12.2019 18:00:00 9,1 6,6 - - 15 8 - - SSW 1008,0 40 0 0,0
07.12.2019 17:00:00 9,0 6,0 - - 18 10 - - SSW 1008,4 29 0 0,0
07.12.2019 16:00:00 8,7 5,7 - - 16 9 - - SW 1009,0 30 0 0,0
07.12.2019 15:00:00 9,1 5,6 - - 15 8 - - SW 1009,2 27 6 0,0
07.12.2019 14:00:00 9,3 5,7 - - 16 9 - - SW 1009,8 28 0 0,0
07.12.2019 13:00:00 9,1 5,4 - - 16 9 - - WSW 1010,5 22 12 0,0
07.12.2019 12:00:00 9,3 5,2 - - 21 11 - - WSW 1011,1 30 60 0,0
07.12.2019 11:00:00 8,8 5,7 - - 15 8 - - WSW 1011,5 24 48 0,0
07.12.2019 10:00:00 8,2 5,9 - - 18 10 - - WSW 1011,4 23 12 0,0
07.12.2019 09:00:00 7,3 5,4 6,5 8,2 15 8 - - WSW 1011,4 27 0 0,0
07.12.2019 08:00:00 7,8 5,5 - - 18 10 - - WSW 1011,2 30 0 0,0
07.12.2019 07:00:00 8,1 5,5 - - 29 16 50 27 W 1010,4 30 0 0,0
07.12.2019 06:00:00 8,1 5,3 - - 15 8 - - W 1010,1 30 0 0,0
07.12.2019 05:00:00 8,1 5,2 - - 21 11 - - W 1009,4 35 0 0,0
07.12.2019 04:00:00 8,2 5,3 - - 21 11 - - W 1009,1 30 0 0,0
07.12.2019 03:00:00 8,0 5,3 - - 21 11 - - W 1008,7 35 0 0,0
07.12.2019 02:00:00 8,0 5,4 - - 21 11 - - W 1008,1 29 0 0,0
07.12.2019 01:00:00 7,9 5,7 - - 21 11 - - W 1007,6 30 0 0,0
07.12.2019 00:00:00 8,4 5,8 - - 16 9 54 29 WSW 1007,0 30 - 0,0
06.12.2019 23:00:00 8,1 5,9 - - 16 9 - - W 1006,2 30 0 0,0
06.12.2019 22:00:00 8,9 6,1 - - 24 13 - - W 1005,4 30 0 0,0
06.12.2019 21:00:00 8,8 6,4 - - 22 12 - - W 1004,7 25 0 0,0
06.12.2019 20:00:00 8,8 6,4 - - 16 9 - - W 1004,0 21 0 0,0
06.12.2019 19:00:00 8,7 6,7 - - 13 7 - - W 1002,6 20 0 0,0
06.12.2019 18:00:00 8,7 6,6 - - 24 13 - - W 1001,3 23 0 0,0
06.12.2019 17:00:00 8,4 6,2 - - 16 9 - - W 1000,0 45 0 0,0
06.12.2019 16:00:00 8,8 7,3 - - 15 8 - - WSW 998,2 13 0 0,0
06.12.2019 15:00:00 9,0 7,0 - - 21 11 50 27 W 997,8 50 6 1,2
06.12.2019 14:00:00 11,3 7,8 - - 22 12 50 27 WSW 997,6 24 18 0,0
06.12.2019 13:00:00 11,5 8,5 - - 24 13 - - WSW 997,9 45 0 0,0
06.12.2019 12:00:00 11,3 10,0 - - 21 11 - - WSW 998,7 40 0 0,2
06.12.2019 11:00:00 11,0 10,3 - - 21 11 - - WSW 999,5 50 0 0,2
06.12.2019 10:00:00 10,9 10,3 - - 18 10 - - SW 1000,2 16 0 0,0
06.12.2019 09:00:00 10,7 10,1 5,7 8,2 16 9 - - SW 1000,3 5 0 0,0
06.12.2019 08:00:00 10,5 9,9 - - 21 11 - - SW 1000,9 22 0 0,0
06.12.2019 07:00:00 10,1 9,7 - - 15 8 - - SSW 1001,2 7 0 1,8
06.12.2019 06:00:00 10,2 9,5 - - 15 8 - - SSW 1002,4 4,3 0 0,8
06.12.2019 05:00:00 10,2 9,1 - - 15 8 - - SSW 1003,1 45 0 0,0
06.12.2019 04:00:00 10,4 8,8 - - 13 7 - - SSW 1003,5 50 0 0,0
06.12.2019 03:00:00 11,0 9,0 - - 18 10 - - SW 1004,2 50 0 0,0
06.12.2019 02:00:00 11,2 8,8 - - 18 10 - - SW 1004,5 50 0 0,0
06.12.2019 01:00:00 11,2 8,6 - - 16 9 50 27 SW 1005,0 50 0 0,0
06.12.2019 00:00:00 11,2 8,5 - - 24 13 46 25 WSW 1005,3 50 - 0,0
05.12.2019 23:00:00 9,9 8,1 - - 22 12 46 25 SW 1005,8 40 0 0,0
05.12.2019 22:00:00 9,2 7,3 - - 26 14 55 30 SW 1006,6 22 0 0,0
05.12.2019 21:00:00 9,8 7,3 - - 29 16 54 29 SW 1007,1 50 0 0,0
05.12.2019 20:00:00 9,3 6,7 - - 28 15 50 27 SW 1007,5 45 0 0,0
05.12.2019 19:00:00 8,7 6,1 - - 22 12 50 27 SW 1008,4 25 0 0,0
05.12.2019 18:00:00 8,4 5,7 - - 26 14 48 26 SW 1009,0 20 0 0,0
05.12.2019 17:00:00 8,2 5,4 - - 28 15 46 25 SW 1009,2 24 0 0,0
05.12.2019 16:00:00 7,4 5,3 - - 24 13 - - SW 1010,4 20 0 0,0
05.12.2019 15:00:00 7,4 5,1 - - 26 14 50 27 SW 1011,2 17 0 0,0
05.12.2019 14:00:00 6,6 4,7 - - 24 13 - - SW 1012,7 14 0 0,0
05.12.2019 13:00:00 6,6 4,4 - - 24 13 - - SSW 1014,0 14 0 0,0
05.12.2019 12:00:00 6,0 4,1 - - 16 9 - - SW 1015,7 17 0 0,0
05.12.2019 11:00:00 5,0 3,4 - - 21 11 - - SW 1016,9 13 0 0,0
05.12.2019 10:00:00 4,0 3,4 - - 16 9 - - SW 1017,6 9 0 0,0
05.12.2019 09:00:00 3,1 2,8 5,0 8,2 13 7 - - SW 1018,2 6 0 0,0
05.12.2019 08:00:00 2,5 2,3 - - 11 6 - - SW 1018,2 4,4 0 0,0

tt = temperature
td = dewpoint
tt -20cm = temperature -20cm
tt -100cm = temperature -100cm
ff = wind speed
fx = gusts
dd = wind direction
ppp = reduced air pressure
vv = visibility
sd = sunshine duration
rr = precipitation

Next stations